Weather History for Goldsboro, NC

Change the Weather History Date:

Monday, May 6, 2013

  Actual Average Record
Temperature  
Mean Temperature 68 °F -  
Max Temperature 76 °F 78 °F 89 °F (2000)
Min Temperature 59 °F 56 °F 46 °F (2011)
Cooling Degree Days 2    
Growing Degree Days 18 (Base 50)    
Moisture  
Dew Point 61 °F    
Average Humidity 85    
Maximum Humidity 100    
Minimum Humidity 56    
Precipitation  
Precipitation 0.05 in - - ()
Sea Level Pressure  
Sea Level Pressure 29.91 in    
Wind  
Wind Speed 12 mph (East)    
Max Wind Speed 22 mph    
Max Gust Speed 29 mph    
Visibility 10 miles    
Events Rain    
Averages and records for this station are not official NWS values.
T = Trace of Precipitation, MM = Missing Value Source: NWS Daily Summary

Daily Weather History Graph

Daily Weather History Graph

Search for Another Location

Airport:

Trip Planner

Search our weather history database for the weather conditions in past years. The results will help you decide how hot, cold, wet, or windy it might be!

Date:

Astronomy

May. 06, 2013 Rise Set
Actual Time 6:15 AM EDT 8:02 PM EDT
Civil Twilight 5:47 AM EDT 8:29 PM EDT
Nautical Twilight 5:14 AM EDT 9:03 PM EDT
Astronomical Twilight 4:38 AM EDT 9:38 PM EDT
Moon 4:09 AM EDT (5/6) 5:06 PM EDT (5/6)
Length of Visible Light 14h 42m
Length of Day
13h 47m
Waning Crescent, 11% of the Moon is Illuminated
May 6
Waning Crescent
May 9
New
May 18
First Quarter
May 25
Full
May 31
Last Quarter

Hourly Weather History & Observations

Time (EDT) Temp. Dew Point Humidity Pressure Visibility Wind Dir Wind Speed Gust Speed Precip Events Conditions
12:58 AM 59.5 °F 57.6 °F 93% 29.99 in 10.0 mi ENE 13.8 mph - N/A   Overcast
1:58 AM 59.7 °F 57.7 °F 93% 29.98 in 10.0 mi ENE 13.8 mph - N/A   Overcast
2:58 AM 59.9 °F 57.9 °F 93% 29.96 in 10.0 mi ENE 12.7 mph - N/A   Overcast
3:22 AM 60.8 °F 57.2 °F 88% 29.94 in 10.0 mi NE 12.7 mph - N/A   Overcast
3:29 AM 60.8 °F 57.2 °F 88% 29.94 in 10.0 mi NE 11.5 mph - N/A Rain Light Rain
3:41 AM 60.8 °F 59.0 °F 94% 29.94 in 10.0 mi ENE 12.7 mph - N/A   Overcast
3:58 AM 60.1 °F 58.5 °F 94% 29.95 in 10.0 mi ENE 12.7 mph - 0.00 in   Overcast
4:10 AM 60.8 °F 59.0 °F 94% 29.94 in 10.0 mi ENE 13.8 mph - N/A   Overcast
4:19 AM 60.8 °F 59.0 °F 94% 29.94 in 10.0 mi ENE 11.5 mph - N/A   Overcast
4:25 AM 60.8 °F 59.0 °F 94% 29.94 in 10.0 mi ENE 10.4 mph - N/A   Overcast
4:46 AM 60.8 °F 59.0 °F 94% 29.93 in 10.0 mi ENE 10.4 mph - N/A   Overcast
4:58 AM 59.9 °F 58.5 °F 95% 29.94 in 10.0 mi ENE 8.1 mph - N/A   Mostly Cloudy
5:28 AM 59.0 °F 59.0 °F 100% 29.93 in 10.0 mi ENE 10.4 mph - N/A   Mostly Cloudy
5:34 AM 59.0 °F 59.0 °F 100% 29.93 in 10.0 mi ENE 10.4 mph - N/A   Mostly Cloudy
5:46 AM 60.8 °F 59.0 °F 94% 29.93 in 10.0 mi ENE 11.5 mph - N/A   Overcast
5:58 AM 59.9 °F 58.8 °F 96% 29.94 in 10.0 mi ENE 12.7 mph - N/A   Overcast
6:34 AM 60.8 °F 59.0 °F 94% 29.93 in 10.0 mi ENE 12.7 mph - N/A   Overcast
6:46 AM 60.8 °F 59.0 °F 94% 29.93 in 10.0 mi ENE 12.7 mph - N/A   Overcast
6:58 AM 60.4 °F 59.0 °F 95% 29.94 in 10.0 mi ENE 12.7 mph - N/A   Overcast
7:16 AM 60.8 °F 59.0 °F 94% 29.93 in 10.0 mi ENE 12.7 mph - N/A   Overcast
7:22 AM 60.8 °F 59.0 °F 94% 29.93 in 10.0 mi ENE 11.5 mph - N/A   Overcast
7:58 AM 61.7 °F 59.7 °F 93% 29.95 in 10.0 mi East 9.2 mph - N/A   Mostly Cloudy
8:07 AM 62.6 °F 60.8 °F 94% 29.94 in 10.0 mi ENE 11.5 mph - N/A   Mostly Cloudy
8:58 AM 66.9 °F 60.8 °F 81% 29.95 in 10.0 mi ENE 15.0 mph - N/A   Partly Cloudy
9:21 AM 66.2 °F 60.8 °F 83% 29.94 in 4.0 mi East 13.8 mph - N/A Rain Light Rain
9:30 AM 66.2 °F 62.6 °F 88% 29.94 in 3.0 mi East 11.5 mph - N/A Rain Light Rain
9:43 AM 66.2 °F 62.6 °F 88% 29.93 in 10.0 mi East 10.4 mph 18.4 mph N/A   Overcast
9:52 AM 66.2 °F 62.6 °F 88% 29.93 in 10.0 mi East 10.4 mph - N/A   Overcast
9:58 AM 65.5 °F 62.6 °F 90% 29.94 in 10.0 mi East 10.4 mph - 0.01 in   Overcast
10:00 AM 66.2 °F 62.6 °F 88% 29.93 in 10.0 mi ENE 10.4 mph - N/A Rain Light Rain
10:18 AM 66.2 °F 62.6 °F 88% 29.93 in 6.0 mi East 9.2 mph - N/A Rain Light Rain
10:30 AM 66.2 °F 62.6 °F 88% 29.93 in 6.0 mi East 10.4 mph - N/A   Overcast
10:33 AM 66.2 °F 62.6 °F 88% 29.93 in 10.0 mi East 8.1 mph - N/A   Overcast
10:51 AM 68.0 °F 64.4 °F 88% 29.93 in 10.0 mi East 12.7 mph 18.4 mph N/A   Scattered Clouds
10:58 AM 68.7 °F 64.2 °F 86% 29.94 in 10.0 mi East 13.8 mph - 0.00 in   Scattered Clouds
11:58 AM 70.9 °F 63.7 °F 78% 29.91 in 10.0 mi ESE 16.1 mph - 0.01 in   Mostly Cloudy
12:13 PM 69.8 °F 64.4 °F 83% 29.90 in 10.0 mi ESE 12.7 mph - N/A   Mostly Cloudy
12:25 PM 69.8 °F 62.6 °F 78% 29.90 in 10.0 mi East 12.7 mph - N/A   Overcast
12:44 PM 69.8 °F 62.6 °F 78% 29.88 in 10.0 mi East 17.3 mph 21.9 mph N/A Rain Light Rain
12:54 PM 69.8 °F 62.6 °F 78% 29.88 in 10.0 mi East 17.3 mph - N/A   Overcast
12:58 PM 69.1 °F 62.2 °F 79% 29.89 in 10.0 mi East 16.1 mph - 0.00 in   Overcast
1:16 PM 69.8 °F 62.6 °F 78% 29.88 in 10.0 mi East 13.8 mph - N/A   Overcast
1:19 PM 69.8 °F 62.6 °F 78% 29.88 in 10.0 mi East 12.7 mph - N/A   Overcast
1:25 PM 69.8 °F 62.6 °F 78% 29.88 in 10.0 mi ESE 13.8 mph - N/A   Overcast
1:28 PM 69.8 °F 62.6 °F 78% 29.88 in 10.0 mi East 13.8 mph - N/A   Overcast
1:37 PM 69.8 °F 62.6 °F 78% 29.87 in 10.0 mi East 12.7 mph 20.7 mph N/A   Overcast
1:52 PM 69.8 °F 62.6 °F 78% 29.87 in 10.0 mi East 21.9 mph 28.8 mph N/A   Overcast
1:58 PM 70.0 °F 62.8 °F 78% 29.88 in 10.0 mi East 18.4 mph 28.8 mph N/A   Overcast
2:07 PM 69.8 °F 62.6 °F 78% 29.87 in 10.0 mi ESE 17.3 mph 25.3 mph N/A   Overcast
2:19 PM 71.6 °F 62.6 °F 73% 29.86 in 10.0 mi ESE 19.6 mph 28.8 mph N/A   Overcast
2:31 PM 71.6 °F 62.6 °F 73% 29.86 in 10.0 mi ESE 17.3 mph 28.8 mph N/A   Overcast
2:37 PM 71.6 °F 62.6 °F 73% 29.87 in 10.0 mi ESE 17.3 mph 28.8 mph N/A   Overcast
2:58 PM 71.6 °F 63.0 °F 74% 29.87 in 10.0 mi ESE 17.3 mph 26.5 mph 0.01 in   Mostly Cloudy
3:01 PM 71.6 °F 62.6 °F 73% 29.86 in 10.0 mi ESE 12.7 mph 26.5 mph N/A   Mostly Cloudy
3:52 PM 73.4 °F 62.6 °F 69% 29.84 in 10.0 mi ESE 16.1 mph 26.5 mph N/A   Mostly Cloudy
3:58 PM 73.2 °F 63.0 °F 70% 29.85 in 10.0 mi ESE 13.8 mph 26.5 mph N/A   Mostly Cloudy
4:10 PM 73.4 °F 62.6 °F 69% 29.83 in 10.0 mi ESE 11.5 mph 23.0 mph N/A   Mostly Cloudy
4:58 PM 76.8 °F 60.3 °F 56% 29.84 in 10.0 mi ESE 11.5 mph 23.0 mph N/A   Clear
5:58 PM 72.9 °F 58.3 °F 60% 29.84 in 10.0 mi ESE 10.4 mph - N/A   Scattered Clouds
6:58 PM 71.6 °F 59.9 °F 66% 29.85 in 10.0 mi ESE 10.4 mph - N/A   Partly Cloudy
7:38 PM 69.8 °F 60.8 °F 73% 29.85 in 9.0 mi ESE 9.2 mph - N/A Rain Light Rain
7:51 PM 68.0 °F 60.8 °F 78% 29.85 in 7.0 mi SE 4.6 mph - N/A   Mostly Cloudy
7:57 PM 68.0 °F 62.6 °F 83% 29.85 in 10.0 mi ESE 4.6 mph - N/A Rain Light Rain
7:58 PM 67.3 °F 61.7 °F 82% 29.86 in 10.0 mi ESE 4.6 mph - 0.00 in Rain Light Rain
8:05 PM 66.2 °F 62.6 °F 88% 29.85 in 10.0 mi ESE 4.6 mph - N/A   Partly Cloudy
8:58 PM 64.6 °F 61.5 °F 90% 29.88 in 10.0 mi ESE 5.8 mph - 0.02 in   Clear
9:58 PM 63.9 °F 61.7 °F 93% 29.90 in 10.0 mi SE 3.5 mph - N/A   Clear
10:58 PM 63.0 °F 61.5 °F 95% 29.91 in 10.0 mi SE 3.5 mph - N/A   Clear
11:58 PM 61.7 °F 60.8 °F 97% 29.91 in 10.0 mi South 1.2 mph - N/A   Clear